[[{"header":{"parameterUnit":"m.s-1","parameterCategory":1,"la1":30.2991,"la2":30.254,"lo1":-89.0895,"lo2":-89.0444,"dy":0.0017,"dx":0.0017,"nx":28,"ny":28,"refTime":"2025-07-08T21:00:00:Z","depth":0,"parameterNumber":2,"parameterNumberName":"U-component_of_WINDS"},"data":[0,0,0,0,0,0,0,0,0,0,0,0,0,0,0,0,0,0,0,0,0,0,0,0,0,0,0,0,0,0,0,0,0,0,0,0,0,0,0,0,0,0,0,0,0,0,0,0,0,0,0,0,0,0,0,0,0,0,4.0133,4.0135,0,4.0327,4.0329,4.0331,4.0311,4.0308,4.0305,4.0303,4.0504,4.0512,4.052,0,0,0,0,0,0,0,0,0,0,0,0,0,3.9747,3.9754,4.0133,4.0135,4.0138,4.0326,4.0329,4.0332,4.0312,4.0308,4.0305,4.0301,4.0501,4.0511,4.0521,0,0,0,0,0,0,0,0,0,0,0,0,0,3.9925,3.9757,4.0132,4.0151,4.0154,4.0326,4.0329,4.0332,4.0313,4.0308,4.0304,4.0299,4.0498,4.051,4.0522,4.0689,0,0,4.056,4.0565,0,0,0,0,0,0,0,0,3.9915,3.9939,4.0145,4.015,4.0154,4.029,4.0267,4.0452,4.0314,4.0253,4.0302,4.0297,4.0437,4.0454,4.05,4.0698,4.0707,4.0561,4.0568,4.0573,4.0577,0,0,0,0,0,0,0,3.9903,3.9931,4.021,4.0148,4.0154,4.0149,4.017,4.0302,4.0368,4.0258,4.0257,4.028,4.0438,4.0488,4.0505,4.071,4.056,4.0571,4.0579,4.0584,4.1052,4.1057,0,0,0,0,0,0,3.9886,3.9921,4.0203,4.0215,4.0021,4.016,4.0183,4.0251,4.0366,4.038,4.0283,4.0278,4.047,4.049,4.0512,4.0713,4.0573,4.0585,4.0592,4.1047,4.1053,4.1059,0,0,0,0,0,0,3.9878,3.9911,4.0196,4.0068,4.0104,4.0171,4.0248,4.0257,4.0307,4.0386,4.0398,4.0322,4.0467,4.0494,4.0644,4.0719,4.059,4.0602,4.1041,4.1049,4.1056,4.1117,0,0,0,0,0,0,3.9867,3.9908,3.9972,4.0069,4.0111,4.0325,4.0253,4.0264,4.0328,4.0323,4.0426,4.0438,4.0465,4.0626,4.0656,4.0734,4.0611,4.1035,4.1045,4.1054,4.1109,4.1126,4.1141,0,0,0,0,0,3.9853,3.9983,3.9976,4.001,4.0192,4.0329,4.0353,4.038,4.0334,4.0399,4.0449,4.0435,4.0706,4.0641,4.0676,4.0758,4.103,4.1042,4.1053,4.1102,4.1123,4.114,0,0,0,0,0,0,3.9895,3.9996,3.9989,4.0155,4.0233,4.0325,4.0408,4.0402,4.0496,4.0488,4.0519,4.0542,4.0693,4.0741,4.0666,4.0924,4.0862,4.0881,4.0887,4.0908,4.0924,4.0909,4.0621,0,0,0,0,0,3.9923,4.0025,4.0109,4.0247,4.0286,4.034,4.0401,4.0415,4.0499,4.0532,4.0593,4.0675,4.0778,4.0846,4.0946,4.1116,4.1137,4.1189,4.1205,4.1218,4.1234,4.1325,4.1348,4.1097,4.1096,4.1096,0,0,3.9983,4.0051,4.0114,4.0257,4.0319,4.0424,4.0369,4.0483,4.0561,4.055,4.0694,4.0742,4.0835,4.0995,4.1069,4.104,4.1308,4.1233,4.1242,4.1251,4.1339,4.1363,4.1384,4.1104,4.1103,4.1102,0,0,4.0145,4.0208,4.0328,4.0391,4.0486,4.0521,4.0549,4.0643,4.0673,4.0818,4.0811,4.0905,4.1084,4.1149,4.1206,4.1391,4.1381,4.1423,4.1506,4.1595,4.1614,4.1632,4.1696,4.1719,4.1439,4.1439,4.1439,0,4.0208,4.0365,4.0391,4.0506,4.0568,4.0561,4.0682,4.0743,4.0866,4.0909,4.0875,4.1097,4.1159,4.1333,4.1378,4.1425,4.1458,4.1411,4.1609,4.1627,4.1644,4.1706,4.173,4.1443,4.1443,4.1442,4.1442,0,4.0436,4.0546,4.0632,4.0748,4.0821,4.0939,4.0982,4.1052,4.106,4.1098,4.1245,4.1319,4.1433,4.1476,4.1485,4.1651,4.1629,4.1602,4.154,4.1672,4.173,4.1754,4.1449,4.1448,4.1446,4.1445,0,0,4.0632,4.0759,4.079,4.0842,4.0945,4.103,4.1147,4.1257,4.1315,4.14,4.1498,4.1648,4.1622,4.1687,4.1704,4.1782,4.1921,4.1745,4.1747,4.1773,4.2105,4.2124,4.2151,4.1915,4.1919,4.1923,4.2097,0,4.0803,4.1008,4.1034,4.1216,4.1317,4.131,4.1412,4.1486,4.1525,4.1616,4.1659,4.1764,4.1723,4.1762,4.1839,4.1887,4.1988,4.1876,4.2006,4.201,4.1981,4.2182,4.2202,4.2363,4.212,4.2124,4.2127,0,4.103,4.1119,4.1311,4.1397,4.144,4.1531,4.1632,4.172,4.1803,4.1826,4.1897,4.1903,4.2023,4.1957,4.2122,4.2045,4.21,4.2132,4.2139,4.2151,4.2075,4.2197,4.2415,4.2438,4.2163,4.216,4.2158,0,4.115,4.1318,4.1454,4.1499,4.1604,4.1668,4.1715,4.1794,4.1857,4.1946,4.1987,4.2089,4.2145,4.2224,4.2258,4.2206,4.2421,4.2358,4.2442,4.2441,4.2487,4.2483,4.2714,4.2525,4.2525,4.2524,4.2524,0,4.1338,4.1455,4.1509,4.1592,4.1723,4.1751,4.188,4.1925,4.1995,4.2087,4.2089,4.2175,4.2214,4.2307,4.2334,4.2466,4.2492,4.2513,4.2518,4.2512,4.2509,4.2547,4.2536,4.2531,4.2529,4.2528,4.2527,0,4.1494,4.1535,4.1682,4.1769,4.1794,4.1886,4.196,4.2041,4.2078,4.2194,4.2223,4.2281,4.239,4.2431,4.2565,4.2583,4.2734,4.2732,4.2705,4.2706,4.2788,4.2779,4.305,4.3086,4.2875,4.2877,4.2879,0,4.1611,4.17,4.1796,4.1856,4.1905,4.2004,4.2067,4.2098,4.2165,4.2265,4.2334,4.2441,4.2529,4.2703,4.2757,4.2859,4.2858,4.2946,4.2873,4.2863,4.2857,4.285,4.2858,4.2959,4.2961,4.2963,4.2964,0,4.1812,4.1827,4.1919,4.2017,4.2093,4.2172,4.2249,4.2299,4.2342,4.2416,4.2526,4.2594,4.2728,4.2835,4.2938,4.2987,4.2983,4.2986,4.3011,4.3004,4.2984,4.2994,4.274,4.298,4.2978,4.2977,4.2976,4.2976,4.1951,4.2029,4.2108,4.2209,4.227,4.2341,4.242,4.2466,4.2558,4.2668,4.2681,4.2799,4.2878,4.3017,4.307,4.3162,4.3139,4.3175,4.3184,4.3192,4.3196,4.2971,4.3181,4.3181,4.3181,4.318,4.318,0,4.2151,4.22,4.2293,4.2399,4.2479,4.2466,4.255,4.2618,4.2721,4.2795,4.288,4.3005,4.3108,4.317,4.3273,4.3334,4.3335,4.336,4.3355,4.3366,4.3213,4.318,4.3358,4.3358,4.3358,4.3358,4.3358,4.3358,4.2264,4.2395,4.2419,4.258,4.2629,4.2742,4.2791,4.2857,4.2915,4.3054,4.3139,4.3178,4.3247,4.3354,4.3448,4.3463,4.35,4.3527,4.3541,4.3396,4.3377,4.336,4.3329,4.3536,4.3536,4.3686,4.3688,4.3689]},{"header":{"parameterUnit":"m.s-1","parameterCategory":1,"la1":30.2991,"la2":30.254,"lo1":-89.0895,"lo2":-89.0444,"dy":0.0017,"dx":0.0017,"nx":28,"ny":28,"refTime":"2025-07-08T21:00:00:Z","depth":0,"parameterNumber":3,"parameterNumberName":"V-component_of_WINDS"},"data":[0,0,0,0,0,0,0,0,0,0,0,0,0,0,0,0,0,0,0,0,0,0,0,0,0,0,0,0,0,0,0,0,0,0,0,0,0,0,0,0,0,0,0,0,0,0,0,0,0,0,0,0,0,0,0,0,0,0,-0.0036,-0.0036,0,-0.0021,-0.0021,-0.0021,-0.0032,-0.0032,-0.0033,-0.0033,-0.0017,-0.0016,-0.0015,0,0,0,0,0,0,0,0,0,0,0,0,0,-0.0073,-0.0072,-0.0036,-0.0036,-0.0035,-0.0021,-0.0021,-0.0021,-0.0032,-0.0032,-0.0033,-0.0034,-0.0017,-0.0016,-0.0015,0,0,0,0,0,0,0,0,0,0,0,0,0,-0.0057,-0.0072,-0.0036,-0.0039,-0.0039,-0.0021,-0.0021,-0.0021,-0.0032,-0.0033,-0.0033,-0.0034,-0.0018,-0.0016,-0.0015,0.0008,0,0,-0.0011,-0.001,0,0,0,0,0,0,0,0,-0.0058,-0.0056,-0.0039,-0.0039,-0.0039,-0.0029,-0.0028,-0.0011,-0.0032,-0.0035,-0.0033,-0.0034,-0.002,-0.0019,-0.0014,0.0009,0.0009,-0.0011,-0.001,-0.0009,-0.0009,0,0,0,0,0,0,0,-0.0059,-0.0057,-0.003,-0.0039,-0.0039,-0.0041,-0.004,-0.0025,-0.0023,-0.0034,-0.0035,-0.0033,-0.0021,-0.0016,-0.0014,0.001,-0.0011,-0.001,-0.0009,-0.0008,0.0053,0.0053,0,0,0,0,0,0,-0.006,-0.0057,-0.003,-0.0029,-0.0051,-0.004,-0.0039,-0.0032,-0.0024,-0.0023,-0.0033,-0.0034,-0.0018,-0.0016,-0.0014,0.0014,-0.0009,-0.0008,-0.0007,0.0052,0.0053,0.0054,0,0,0,0,0,0,-0.0061,-0.0058,-0.0031,-0.0044,-0.004,-0.0039,-0.0031,-0.0031,-0.0026,-0.0022,-0.0022,-0.0028,-0.0018,-0.0015,0.0003,0.0015,-0.0008,-0.0006,0.0051,0.0052,0.0053,0.007,0,0,0,0,0,0,-0.0062,-0.0058,-0.0049,-0.0043,-0.004,-0.0015,-0.003,-0.003,-0.0024,-0.0025,-0.0018,-0.0017,-0.0019,0.0001,0.0004,0.0016,-0.0005,0.005,0.0051,0.0053,0.0069,0.0072,0.0075,0,0,0,0,0,-0.0063,-0.0045,-0.0049,-0.0045,-0.0029,-0.0014,-0.0012,-0.0014,-0.0023,-0.0014,-0.0012,-0.0018,0.0012,0.0003,0.0006,0.0019,0.0049,0.0051,0.0053,0.0067,0.0071,0.0074,0,0,0,0,0,0,-0.0048,-0.0044,-0.0048,-0.0027,-0.0021,-0.0016,-0.0005,-0.001,-0.0001,-0.0002,-0.0005,-0.0003,0.0016,0.0019,0.0008,0.0042,0.0029,0.0032,0.0039,0.0043,0.0046,0.0045,-0.0004,0,0,0,0,0,-0.0043,-0.0032,-0.0028,-0.001,-0.0007,-0.0007,-0.0,-0.0003,0.0004,0.0007,0.001,0.0017,0.0028,0.0035,0.0046,0.0068,0.007,0.0079,0.0082,0.0084,0.0087,0.0099,0.0104,0.006,0.006,0.006,0,0,-0.0031,-0.0027,-0.002,-0.0007,-0.0003,0.0009,-0.0004,0.0009,0.0018,0.0009,0.0026,0.0029,0.0036,0.0057,0.0066,0.006,0.0099,0.0087,0.0089,0.009,0.0102,0.0106,0.011,0.0061,0.0061,0.006,0,0,-0.0002,0.0001,0.0017,0.0021,0.0028,0.0028,0.0032,0.0037,0.0038,0.0056,0.0049,0.0059,0.0078,0.0084,0.0089,0.0118,0.0114,0.0122,0.0138,0.015,0.0154,0.0157,0.0168,0.0172,0.0124,0.0124,0.0124,0,0.0012,0.0029,0.0026,0.0039,0.0045,0.0036,0.0052,0.0057,0.0067,0.0071,0.0064,0.0088,0.0092,0.0114,0.0121,0.0125,0.013,0.0122,0.0153,0.0157,0.0159,0.017,0.0174,0.0125,0.0125,0.0125,0.0125,0,0.0047,0.0059,0.0071,0.008,0.0087,0.0102,0.0101,0.0108,0.0105,0.0106,0.0123,0.0128,0.0139,0.0144,0.0141,0.0165,0.0161,0.0154,0.0142,0.0165,0.0175,0.0179,0.0127,0.0126,0.0126,0.0126,0,0,0.0086,0.0093,0.0097,0.0101,0.0108,0.0117,0.0131,0.0141,0.0148,0.0155,0.0167,0.0183,0.0176,0.0182,0.0179,0.019,0.0213,0.0181,0.0181,0.0188,0.0241,0.0248,0.0252,0.0209,0.021,0.0211,0.0241,0,0.0116,0.014,0.0137,0.0161,0.0172,0.0163,0.0176,0.0181,0.0182,0.0192,0.0192,0.0204,0.0193,0.0197,0.0207,0.0209,0.0224,0.0206,0.0222,0.0222,0.0222,0.0257,0.0264,0.0293,0.0245,0.0245,0.0246,0,0.0153,0.0161,0.0186,0.019,0.0195,0.0206,0.0215,0.0224,0.023,0.023,0.0236,0.0232,0.0246,0.0232,0.0252,0.024,0.0246,0.0248,0.0249,0.0251,0.0236,0.0262,0.0301,0.0306,0.0252,0.0251,0.0251,0,0.0181,0.0197,0.0214,0.0218,0.0223,0.0231,0.0234,0.0239,0.0245,0.0253,0.0257,0.0266,0.0272,0.0279,0.0278,0.0268,0.0298,0.0284,0.0299,0.0299,0.0307,0.0307,0.035,0.0309,0.0309,0.0309,0.0309,0,0.0215,0.0231,0.0227,0.0238,0.0255,0.0251,0.0268,0.0269,0.0274,0.0285,0.0277,0.0288,0.0284,0.0294,0.0293,0.031,0.0312,0.0313,0.0313,0.0314,0.0314,0.0319,0.0318,0.031,0.031,0.0309,0.0309,0,0.0249,0.0247,0.0266,0.0268,0.027,0.0282,0.0285,0.0295,0.0295,0.0309,0.0312,0.0311,0.0323,0.0321,0.0334,0.0333,0.0355,0.0351,0.0353,0.0353,0.0368,0.0367,0.0416,0.0423,0.0377,0.0377,0.0377,0,0.0272,0.0284,0.0288,0.0294,0.0297,0.0308,0.0314,0.031,0.0317,0.0324,0.0333,0.0344,0.0352,0.0371,0.0372,0.0382,0.038,0.0396,0.0381,0.0383,0.0381,0.0381,0.0383,0.04,0.04,0.0401,0.0401,0,0.0312,0.031,0.0319,0.0328,0.0336,0.0342,0.0348,0.0354,0.035,0.0358,0.037,0.0377,0.0389,0.04,0.0409,0.0412,0.0407,0.0405,0.041,0.0412,0.0413,0.0414,0.0362,0.0405,0.0404,0.0404,0.0404,0.0404,0.0342,0.0352,0.0357,0.0367,0.0371,0.0376,0.0386,0.0386,0.0396,0.0406,0.0403,0.0416,0.0421,0.0432,0.0436,0.0446,0.044,0.0446,0.0448,0.045,0.0452,0.041,0.0448,0.0448,0.0447,0.0447,0.0447,0,0.0383,0.0385,0.0394,0.0403,0.0411,0.0403,0.0409,0.0417,0.0429,0.0433,0.0442,0.0455,0.0465,0.0467,0.0476,0.0485,0.0482,0.0487,0.0488,0.0488,0.0456,0.0452,0.0489,0.0489,0.0489,0.0489,0.0489,0.0489,0.0405,0.0422,0.0421,0.044,0.0442,0.0454,0.0459,0.0464,0.0468,0.0483,0.0491,0.0491,0.0495,0.0505,0.0514,0.0514,0.0519,0.0525,0.0524,0.0495,0.0491,0.0487,0.0483,0.0526,0.0526,0.0556,0.0556,0.0556]}]]